EDT,Max TemperatureF,Mean TemperatureF,Min TemperatureF,Max Dew PointF,MeanDew PointF,Min DewpointF,Max Humidity, Mean Humidity, Min Humidity, Max Sea Level PressureIn, Mean Sea Level PressureIn, Min Sea Level PressureIn, Max VisibilityMiles, Mean VisibilityMiles, Min VisibilityMiles, Max Wind SpeedMPH, Mean Wind SpeedMPH, Max Gust SpeedMPH,PrecipitationIn, CloudCover, Events, WindDirDegrees
2013-9-1,82,74,66,72,69,66,100,84,65,29.84,29.78,29.74,10,8,2,13,4,,0.00,4,,195
2013-9-2,77,67,57,70,61,52,100,78,50,29.98,29.87,29.77,10,8,3,17,6,22,0.00,3,Rain,336
2013-9-3,75,66,55,55,53,50,94,70,47,30.07,30.02,29.96,10,10,10,10,4,20,0.00,3,,334
2013-9-4,78,64,51,61,55,52,100,76,44,30.13,30.10,30.06,10,8,0,12,2,17,0.00,0,Fog,272
2013-9-5,73,64,55,57,48,37,100,63,27,30.26,30.21,30.12,10,10,7,13,3,18,0.00,1,,43
2013-9-6,78,64,51,52,49,45,94,62,34,30.27,30.20,30.08,10,10,10,9,3,,0.00,0,,169
2013-9-7,84,72,60,66,59,52,88,66,45,30.08,30.00,29.93,10,10,10,10,2,17,0.00,2,Rain,245
2013-9-8,78,71,64,66,63,61,100,80,54,30.07,30.02,29.96,10,9,5,15,5,18,0.00,3,,92
2013-9-9,87,72,57,72,63,52,94,72,55,30.05,29.97,29.89,10,10,10,15,7,20,0.00,1,Rain,163
2013-9-10,93,82,71,72,67,61,94,63,34,30.05,30.00,29.92,10,9,5,16,8,23,0.00,0,,236
2013-9-11,91,80,69,72,69,64,100,77,41,30.08,30.03,29.96,10,8,3,25,8,36,0.00,1,Rain,235
2013-9-12,80,70,59,70,59,48,100,73,36,30.02,29.96,29.88,10,7,2,18,4,24,0.00,2,,327
2013-9-13,62,53,42,50,44,39,93,72,45,30.15,30.09,30.03,10,10,10,15,7,20,0.00,2,,5
2013-9-14,68,52,37,45,39,36,100,65,32,30.21,30.14,30.09,10,10,5,7,0,,0.00,0,,241
2013-9-15,62,55,48,55,48,39,100,79,59,30.14,30.09,30.04,10,9,4,10,2,9,0.00,4,Rain,98
2013-9-16,64,56,48,54,50,45,100,80,52,30.34,30.27,30.14,10,9,4,10,4,,0.00,5,,31
2013-9-17,69,55,41,48,44,39,100,71,38,30.38,30.31,30.20,10,10,7,8,5,,0.00,0,,104
2013-9-18,78,66,53,55,50,46,88,60,32,30.19,30.10,30.01,10,10,7,12,4,16,0.00,0,,171
2013-9-19,73,68,64,68,64,52,100,89,56,30.05,29.98,29.90,10,8,2,16,5,21,0.00,3,Rain,194
2013-9-20,73,68,64,70,67,61,100,91,83,29.90,29.83,29.77,10,8,3,13,8,17,0.00,4,Rain,230
2013-9-21,66,58,51,61,51,45,100,75,49,29.91,29.81,29.74,10,10,10,16,7,24,0.00,4,,308
2013-9-22,60,52,42,48,44,41,93,73,48,30.07,30.00,29.91,10,10,10,10,4,18,0.00,3,,21
2013-9-23,64,52,39,48,43,39,100,75,49,30.16,30.11,30.07,10,10,10,12,5,,0.00,1,,95
2013-9-24,69,55,41,46,44,39,93,69,38,30.12,30.06,29.97,10,10,5,12,5,17,0.00,0,,117
2013-9-25,71,58,44,54,49,45,100,75,43,30.00,29.97,29.94,10,8,2,8,3,,0.00,0,,80
2013-9-26,78,62,46,54,46,41,100,66,28,30.12,30.06,29.98,10,8,2,10,3,16,0.00,0,,84
2013-9-27,78,61,44,55,49,43,100,64,36,30.22,30.17,30.12,10,10,5,12,5,17,0.00,0,,113
2013-9-28,80,66,53,55,52,48,100,66,32,30.17,30.10,30.00,10,10,7,15,7,20,0.00,0,,157
2013-9-29,66,57,48,61,55,48,100,80,59,30.02,29.99,29.96,10,10,5,12,7,17,0.00,4,Rain,287
2013-9-30,69,58,46,57,51,45,100,85,56,30.02,29.98,29.93,10,7,0,12,2,17,0.00,3,Fog,208